sat.trackr.live / text

‹ back to catalog

STARLINK-4692

NORAD 53603 · 2022-104R

PAYLOAD ACTIVE UNKNOWN

§ Identity

Operator
Country
US
Launch date
2022-08-28
Launch site
AFETR
Launch vehicle
Mass (kg)
RCS (m²)

Purposes: comms

External: N2YO · Heavens-Above · Gunter

§ Orbital elements

Epoch: 2026-05-25T00:07:00.977088Z

Period
95.44 min
Inclination
53.2139°
Eccentricity
0.0001235
Mean motion
15.08833376 rev/d
Perigee alt
538.9 km
Apogee alt
540.6 km
Semi-major
6,917.9 km
B*
2.1428e-5
RAAN
256.7012°
Arg perigee
90.6503°
Mean anomaly
269.4630°
Rev number
20,720

§ Raw data

STARLINK-46921 53603U 22104R   26145.00487242  .00000053  00000+0  21428-4 0  99992 53603  53.2139 256.7012 0001235  90.6503 269.4630 15.08833376207204

JSON: /api/v1/satellites/53603 · /tle

For live sub-satellite position, see the globe view (requires WebGL).

§ Visibility from observer

Set your observer location to see the next 7 days of passes ≥ 10°. The values pass through the URL so the page stays shareable.

No JS? Fill the form by hand. The geolocation button needs JavaScript.